| time (UTC) | temp C | wind direction | speed KPH | gust KPH | rain 1hr cm | rain 24hr cm | rain mn cm | humidity % | barometer mb |
| 20260508114729 | 7 | 221 | 22.5 | 25.7 | 0.00 | 0.00 | 0.00 | 72 | 1026.7 |
| 20260508112730 | 8 | 217 | 19.3 | 20.9 | 0.00 | 0.00 | 0.00 | 68 | 1026.6 |
| 20260508110729 | 8 | 227 | 22.5 | 24.1 | 0.00 | 0.00 | 0.00 | 62 | 1026.5 |
| 20260508104729 | 7 | 213 | 24.1 | 27.4 | 0.00 | 0.00 | 0.00 | 67 | 1026.6 |
| 20260508102729 | 7 | 208 | 24.1 | 27.4 | 0.00 | 0.00 | 0.00 | 68 | 1026.5 |
| 20260508100729 | 7 | 201 | 20.9 | 24.1 | 0.00 | 0.00 | 0.00 | 72 | 1026.4 |
| 20260508094728 | 10 | 12 | 12.9 | 17.7 | 0.00 | 0.00 | 0.00 | 53 | 1026.4 |
| 20260508092729 | 11 | 13 | 19.3 | 25.7 | 0.00 | 0.00 | 0.00 | 46 | 1026.3 |
| 20260508090729 | 10 | 13 | 20.9 | 27.4 | 0.00 | 0.00 | 0.00 | 45 | 1026.3 |
| 20260508084729 | 10 | 14 | 24.1 | 29.0 | 0.00 | 0.00 | 0.00 | 42 | 1026.3 |
| 20260508082728 | 9 | 6 | 16.1 | 20.9 | 0.00 | 0.00 | 0.00 | 51 | 1026.3 |
| 20260508080729 | 8 | 351 | 22.5 | 29.0 | 0.00 | 0.00 | 0.00 | 53 | 1026.2 |
| 20260508074728 | 8 | 2 | 19.3 | 22.5 | 0.00 | 0.00 | 0.00 | 55 | 1026.0 |
| 20260508072728 | 8 | 354 | 16.1 | 19.3 | 0.00 | 0.00 | 0.00 | 52 | 1026.0 |
| 20260508070729 | 8 | 355 | 20.9 | 25.7 | 0.00 | 0.00 | 0.00 | 52 | 1025.8 |
| 20260508064728 | 7 | 359 | 17.7 | 20.9 | 0.00 | 0.00 | 0.00 | 54 | 1025.8 |
| 20260508060728 | 7 | 8 | 16.1 | 19.3 | 0.00 | 0.00 | 0.00 | 59 | 1025.3 |
| 20260508052729 | 6 | 3 | 17.7 | 22.5 | 0.00 | 0.00 | 0.00 | 60 | 1024.9 |
| 20260508050728 | 6 | 6 | 20.9 | 27.4 | 0.00 | 0.00 | 0.00 | 63 | 1024.6 |
| 20260508044728 | 6 | 10 | 19.3 | 24.1 | 0.00 | 0.00 | 0.00 | 62 | 1024.4 |
| 20260508042728 | 6 | 10 | 14.5 | 22.5 | 0.00 | 0.00 | 0.00 | 61 | 1024.2 |
| 20260508040728 | 5 | 359 | 14.5 | 20.9 | 0.00 | 0.00 | 0.00 | 62 | 1024.0 |
| 20260508034728 | 5 | 351 | 17.7 | 19.3 | 0.00 | 0.00 | 0.00 | 60 | 1023.7 |
| 20260508032728 | 5 | 357 | 17.7 | 20.9 | 0.00 | 0.00 | 0.00 | 61 | 1023.5 |
| 20260508030728 | 5 | 2 | 19.3 | 22.5 | 0.00 | 0.00 | 0.00 | 63 | 1023.3 |
| 20260508024727 | 5 | 2 | 22.5 | 27.4 | 0.00 | 0.00 | 0.00 | 59 | 1023.0 |
| 20260508022727 | 5 | 3 | 24.1 | 30.6 | 0.00 | 0.00 | 0.00 | 63 | 1022.7 |
| 20260508020727 | 5 | 8 | 20.9 | 27.4 | 0.00 | 0.00 | 0.00 | 59 | 1022.5 |
| 20260508014727 | 5 | 10 | 22.5 | 27.4 | 0.00 | 0.00 | 0.00 | 61 | 1022.2 |
| 20260508012727 | 6 | 8 | 24.1 | 29.0 | 0.00 | 0.00 | 0.00 | 60 | 1022.0 |
| 20260508010727 | 6 | 360 | 27.4 | 35.4 | 0.00 | 0.00 | 0.00 | 61 | 1021.7 |
| 20260508004727 | 6 | 359 | 27.4 | 35.4 | 0.00 | 0.00 | 0.00 | 57 | 1021.4 |
| 20260508002727 | 6 | 352 | 30.6 | 37.0 | 0.00 | 0.00 | 0.00 | 57 | 1021.1 |
| 20260508000728 | 7 | 348 | 30.6 | 38.6 | 0.00 | 0.00 | 0.00 | 54 | 1020.9 |
| 20260507234727 | 7 | 346 | 27.4 | 33.8 | 0.00 | 0.00 | 0.00 | 54 | 1020.7 |
| 20260507232727 | 7 | 344 | 27.4 | 30.6 | 0.00 | 0.00 | 0.00 | 59 | 1020.4 |
| 20260507230727 | 7 | 343 | 27.4 | 30.6 | 0.00 | 0.00 | 0.00 | 57 | 1020.1 |
| 20260507224726 | 7 | 340 | 29.0 | 33.8 | 0.00 | 0.00 | 0.00 | 56 | 1019.8 |
| 20260507222727 | 7 | 335 | 27.4 | 32.2 | 0.00 | 0.00 | 0.00 | 54 | 1019.7 |
| 20260507220726 | 7 | 331 | 27.4 | 32.2 | 0.00 | 0.00 | 0.00 | 55 | 1019.5 |
| 20260507214727 | 7 | 328 | 27.4 | 30.6 | 0.00 | 0.00 | 0.00 | 54 | 1019.2 |
| 20260507212726 | 7 | 333 | 20.9 | 25.7 | 0.00 | 0.00 | 0.00 | 60 | 1019.0 |
| 20260507210726 | 7 | 337 | 27.4 | 29.0 | 0.00 | 0.00 | 0.00 | 55 | 1018.7 |
| 20260507204726 | 7 | 318 | 17.7 | 24.1 | 0.00 | 0.00 | 0.00 | 58 | 1018.4 |
| 20260507202726 | 7 | 278 | 14.5 | 16.1 | 0.00 | 0.00 | 0.00 | 60 | 1017.9 |
| 20260507200727 | 7 | 282 | 14.5 | 16.1 | 0.00 | 0.00 | 0.00 | 58 | 1018.0 |
| 20260507194726 | 6 | 270 | 17.7 | 17.7 | 0.00 | 0.00 | 0.00 | 66 | 1017.8 |
| 20260507192726 | 7 | 265 | 17.7 | 17.7 | 0.00 | 0.00 | 0.00 | 66 | 1017.5 |
| 20260507190725 | 7 | 263 | 20.9 | 22.5 | 0.00 | 0.00 | 0.00 | 61 | 1017.3 |
| 20260507184726 | 7 | 253 | 20.9 | 22.5 | 0.00 | 0.00 | 0.00 | 69 | 1017.1 |
| 20260507182725 | 6 | 239 | 16.1 | 19.3 | 0.00 | 0.00 | 0.00 | 75 | 1017.0 |
| 20260507180725 | 6 | 232 | 14.5 | 17.7 | 0.00 | 0.00 | 0.00 | 75 | 1017.0 |
| 20260507172725 | 7 | 237 | 14.5 | 17.7 | 0.00 | 0.00 | 0.00 | 79 | 1016.9 |
| 20260507170725 | 7 | 232 | 17.7 | 19.3 | 0.00 | 0.00 | 0.00 | 73 | 1016.9 |
| 20260507164726 | 7 | 223 | 16.1 | 17.7 | 0.00 | 0.00 | 0.00 | 75 | 1016.7 |
| 20260507162725 | 7 | 214 | 14.5 | 16.1 | 0.00 | 0.00 | 0.00 | 77 | 1016.7 |
| 20260507160725 | 6 | 201 | 12.9 | 14.5 | 0.00 | 0.00 | 0.00 | 79 | 1016.6 |
| 20260507154725 | 6 | 203 | 12.9 | 14.5 | 0.00 | 0.00 | 0.00 | 83 | 1016.5 |
| 20260507152724 | 7 | 182 | 11.3 | 12.9 | 0.00 | 0.00 | 0.00 | 81 | 1016.4 |
| 20260507150726 | 7 | 192 | 12.9 | 14.5 | 0.00 | 0.00 | 0.00 | 81 | 1016.5 |
| 20260507144725 | 6 | 204 | 11.3 | 14.5 | 0.00 | 0.00 | 0.00 | 81 | 1016.5 |
| 20260507142726 | 7 | 215 | 12.9 | 14.5 | 0.00 | 0.00 | 0.00 | 77 | 1016.5 |
| 20260507140725 | 7 | 171 | 14.5 | 16.1 | 0.00 | 0.00 | 0.00 | 80 | 1016.2 |
| 20260507134725 | 7 | 152 | 17.7 | 19.3 | 0.00 | 0.00 | 0.00 | 75 | 1016.0 |
| 20260507132724 | 8 | 152 | 14.5 | 19.3 | 0.00 | 0.00 | 0.00 | 73 | 1016.0 |
| 20260507130725 | 9 | 164 | 6.4 | 8.0 | 0.00 | 0.00 | 0.00 | 57 | 1016.0 |
| 20260507124724 | 8 | 190 | 6.4 | 6.4 | 0.00 | 0.00 | 0.00 | 51 | 1016.0 |
| 20260507122724 | 8 | 167 | 8.0 | 8.0 | 0.00 | 0.00 | 0.00 | 69 | 1016.1 |
| 20260507120725 | 7 | 165 | 8.0 | 9.7 | 0.00 | 0.00 | 0.00 | 72 | 1016.1 |